{"data":{"norad_id":69123,"intl_designator":"2026-109A","name":"SMILE","alt_names":[],"object_type":"PAYLOAD","status":"ACTIVE","operator":null,"country":"ESA","launch_date":"2026-05-19","launch_site_code":"FRGUI","launch_vehicle":null,"mission":null,"orbit_class":"UNKNOWN","rcs_meters":null,"size_class":null,"mass_kg":null,"dimensions":null,"purposes":["science"],"wikipedia_slug":null,"has_3d_model":false,"image_url":null,"decayed_at":null,"tle_current":{"epoch":"2026-05-24T15:40:35.120928Z","epoch_age_seconds":105016,"freshness":"FRESH","line1":"1 69123U 26109A   26144.65318427 -.00001976  00000+0 -42379-3 0  9994","line2":"2 69123  70.0007 229.2745 0009123 259.5159 100.4951 14.57062785   802","mean_motion":14.57062785,"eccentricity":0.0009123,"inclination_deg":70.0007,"raan_deg":229.2745,"arg_perigee_deg":259.5159,"mean_anomaly_deg":100.4951,"bstar":-0.00042379,"rev_number":80,"period_min":98.828960208465,"perigee_km":696.21409349029,"apogee_km":709.13374108998,"semimajor_km":7080.8109172901,"source":"CELESTRAK","updated_at":"2026-05-25T13:38:24.647024Z"}}}